When you browse on this site, cookies collect data to enhance your experience and personalize the content and advertising you see.
Visit our Privacy Policy to learn more. By continuing to use the site, you agree to this use of cookies and data.
  • In Hungary
  • List of Countries
  • For 7 days
  • Water Temperature
  • Satellite Maps
  • Weather Map
  • News
  • Weather Widgets
  • user-avatar
    Login

    Hourly Weather Athens

    Today, 20 July, Saturday

    Time Temperature Precipitation Wind Pressure Humidity
    00:00 +25°C° 0 mm 3 mps 752 mmHg 48%
    01:00 +25°C° 0 mm 3 mps 752 mmHg 48%
    02:00 +25°C° 0 mm 4 mps 752 mmHg 49%
    03:00 +23°C° 0 mm 4 mps 752 mmHg 51%
    04:00 +23°C° 0 mm 4 mps 752 mmHg 53%
    05:00 +23°C° 0 mm 4 mps 752 mmHg 55%
    06:00 +25°C° 0 mm 4 mps 752 mmHg 53%
    07:00 +26°C° 0 mm 5 mps 753 mmHg 52%
    08:00 +28°C° 0 mm 5 mps 753 mmHg 51%
    09:00 +29°C° 0 mm 6 mps 753 mmHg 46%
    10:00 +30°C° 0 mm 7 mps 753 mmHg 42%
    11:00 +32°C° 0 mm 8 mps 754 mmHg 37%
    12:00 +32°C° 0 mm 8 mps 754 mmHg 35%
    13:00 +32°C° 0 mm 8 mps 754 mmHg 34%
    14:00 +33°C° 0 mm 8 mps 754 mmHg 32%
    15:00 +32°C° 0 mm 7 mps 753 mmHg 32%
    16:00 +32°C° 0 mm 7 mps 753 mmHg 31%
    17:00 +32°C° 0 mm 7 mps 753 mmHg 31%
    18:00 +30°C° 0 mm 6 mps 753 mmHg 33%
    19:00 +28°C° 0 mm 5 mps 753 mmHg 35%
    20:00 +27°C° 0 mm 4 mps 753 mmHg 38%
    21:00 +27°C° 0 mm 4 mps 754 mmHg 38%
    22:00 +26°C° 0 mm 4 mps 754 mmHg 39%
    23:00 +26°C° 0 mm 3 mps 754 mmHg 39%

    Tomorrow, 21 July, Sunday

    Time Temperature Precipitation Wind Pressure Humidity
    00:00 +26°C° 0 mm 3 mps 754 mmHg 40%
    01:00 +25°C° 0 mm 4 mps 754 mmHg 42%
    02:00 +25°C° 0 mm 4 mps 753 mmHg 43%
    03:00 +25°C° 0 mm 4 mps 753 mmHg 46%
    04:00 +25°C° 0 mm 4 mps 753 mmHg 49%
    05:00 +23°C° 0 mm 4 mps 753 mmHg 51%
    06:00 +26°C° 0 mm 5 mps 753 mmHg 49%
    07:00 +27°C° 0 mm 5 mps 754 mmHg 46%
    08:00 +28°C° 0 mm 6 mps 754 mmHg 44%
    09:00 +29°C° 0 mm 7 mps 754 mmHg 41%
    10:00 +32°C° 0 mm 7 mps 754 mmHg 37%
    11:00 +33°C° 0 mm 8 mps 754 mmHg 34%
    12:00 +33°C° 0 mm 8 mps 754 mmHg 33%
    13:00 +33°C° 0 mm 8 mps 754 mmHg 32%
    14:00 +34°C° 0 mm 9 mps 754 mmHg 31%
    15:00 +33°C° 0 mm 8 mps 754 mmHg 30%
    16:00 +33°C° 0 mm 8 mps 754 mmHg 29%
    17:00 +33°C° 0 mm 8 mps 754 mmHg 29%
    18:00 +32°C° 0 mm 7 mps 754 mmHg 33%
    19:00 +30°C° 0 mm 6 mps 754 mmHg 36%
    20:00 +28°C° 0 mm 4 mps 754 mmHg 40%
    21:00 +28°C° 0 mm 4 mps 754 mmHg 42%
    22:00 +27°C° 0 mm 4 mps 754 mmHg 44%
    23:00 +27°C° 0 mm 4 mps 754 mmHg 46%

    Day after tomorrow, 22 July, Monday

    Time Temperature Precipitation Wind Pressure Humidity
    00:00 +26°C° 0 mm 4 mps 754 mmHg 48%
    01:00 +26°C° 0 mm 4 mps 753 mmHg 50%
    02:00 +26°C° 0 mm 4 mps 753 mmHg 51%
    03:00 +26°C° 0 mm 4 mps 753 mmHg 53%
    04:00 +25°C° 0 mm 5 mps 753 mmHg 54%
    05:00 +25°C° 0 mm 5 mps 752 mmHg 56%
    06:00 +27°C° 0 mm 6 mps 753 mmHg 50%
    07:00 +28°C° 0 mm 7 mps 753 mmHg 45%
    08:00 +29°C° 0 mm 7 mps 753 mmHg 39%
    09:00 +31°C° 0 mm 8 mps 753 mmHg 37%
    10:00 +32°C° 0 mm 9 mps 753 mmHg 35%
    11:00 +33°C° 0 mm 10 mps 753 mmHg 33%
    12:00 +34°C° 0 mm 10 mps 753 mmHg 33%
    13:00 +34°C° 0 mm 10 mps 753 mmHg 32%
    14:00 +34°C° 0 mm 10 mps 753 mmHg 32%
    15:00 +34°C° 0 mm 9 mps 752 mmHg 32%
    16:00 +34°C° 0 mm 9 mps 752 mmHg 32%
    17:00 +34°C° 0 mm 9 mps 752 mmHg 32%
    18:00 +33°C° 0 mm 7 mps 752 mmHg 34%
    19:00 +30°C° 0 mm 6 mps 752 mmHg 37%
    20:00 +29°C° 0 mm 4 mps 752 mmHg 40%
    21:00 +29°C° 0 mm 4 mps 752 mmHg 42%
    22:00 +28°C° 0 mm 4 mps 752 mmHg 45%
    23:00 +28°C° 0 mm 4 mps 751 mmHg 47%

    23 July, Tuesday

    Time Temperature Precipitation Wind Pressure Humidity
    00:00 +27°C° 0 mm 4 mps 751 mmHg 48%
    01:00 +27°C° 0 mm 4 mps 751 mmHg 48%
    02:00 +27°C° 0 mm 4 mps 751 mmHg 49%
    03:00 +27°C° 0 mm 4 mps 750 mmHg 49%
    04:00 +27°C° 0 mm 4 mps 750 mmHg 50%
    05:00 +27°C° 0 mm 4 mps 750 mmHg 51%
    06:00 +28°C° 0 mm 5 mps 750 mmHg 47%
    07:00 +29°C° 0 mm 5 mps 750 mmHg 43%
    08:00 +32°C° 0 mm 6 mps 750 mmHg 40%
    09:00 +33°C° 0 mm 7 mps 750 mmHg 40%
    10:00 +34°C° 0 mm 7 mps 750 mmHg 40%
    11:00 +34°C° 0 mm 8 mps 751 mmHg 40%
    12:00 +35°C° 0 mm 8 mps 750 mmHg 38%
    13:00 +35°C° 0 mm 8 mps 750 mmHg 37%
    14:00 +35°C° 0 mm 8 mps 750 mmHg 36%
    15:00 +35°C° 0 mm 7 mps 750 mmHg 36%
    16:00 +35°C° 0 mm 7 mps 750 mmHg 36%
    17:00 +35°C° 0 mm 6 mps 749 mmHg 36%
    18:00 +34°C° 0 mm 5 mps 749 mmHg 39%
    19:00 +33°C° 0 mm 4 mps 749 mmHg 41%
    20:00 +30°C° 0 mm 3 mps 749 mmHg 44%
    21:00 +30°C° 0 mm 3 mps 750 mmHg 45%
    22:00 +29°C° 0 mm 3 mps 750 mmHg 47%
    23:00 +29°C° 0 mm 3 mps 750 mmHg 48%

    24 July, Wednesday

    Time Temperature Precipitation Wind Pressure Humidity
    00:00 +28°C° 0 mm 3 mps 750 mmHg 52%
    01:00 +27°C° 0 mm 4 mps 750 mmHg 55%
    02:00 +27°C° 0 mm 4 mps 750 mmHg 59%
    03:00 +26°C° 0 mm 4 mps 750 mmHg 65%
    04:00 +26°C° 0 mm 5 mps 750 mmHg 71%
    05:00 +25°C° 0 mm 5 mps 750 mmHg 77%
    06:00 +26°C° 0 mm 6 mps 751 mmHg 71%
    07:00 +26°C° 0 mm 7 mps 751 mmHg 65%
    08:00 +27°C° 0 mm 7 mps 752 mmHg 60%
    09:00 +28°C° 0 mm 8 mps 752 mmHg 53%
    10:00 +29°C° 0 mm 8 mps 752 mmHg 47%
    11:00 +31°C° 0 mm 9 mps 752 mmHg 41%
    12:00 +31°C° 0 mm 9 mps 752 mmHg 40%
    13:00 +31°C° 0 mm 9 mps 752 mmHg 39%
    14:00 +32°C° 0 mm 9 mps 752 mmHg 39%
    15:00 +32°C° 0 mm 9 mps 752 mmHg 37%
    16:00 +31°C° 0 mm 9 mps 752 mmHg 36%
    17:00 +31°C° 0 mm 8 mps 752 mmHg 35%
    18:00 +29°C° 0 mm 7 mps 752 mmHg 37%
    19:00 +28°C° 0 mm 6 mps 752 mmHg 39%
    20:00 +27°C° 0 mm 5 mps 752 mmHg 41%
    21:00 +27°C° 0 mm 5 mps 752 mmHg 42%
    22:00 +26°C° 0 mm 5 mps 752 mmHg 44%
    23:00 +26°C° 0 mm 5 mps 752 mmHg 45%

    25 July, Thursday

    Time Temperature Precipitation Wind Pressure Humidity
    00:00 +25°C° 0 mm 5 mps 752 mmHg 47%
    01:00 +25°C° 0 mm 5 mps 752 mmHg 50%
    02:00 +25°C° 0 mm 5 mps 752 mmHg 52%
    03:00 +25°C° 0 mm 5 mps 752 mmHg 56%
    04:00 +23°C° 0 mm 5 mps 752 mmHg 61%
    05:00 +23°C° 0 mm 5 mps 751 mmHg 65%
    06:00 +26°C° 0 mm 7 mps 752 mmHg 60%
    07:00 +27°C° 0 mm 8 mps 752 mmHg 55%
    08:00 +28°C° 0 mm 9 mps 752 mmHg 50%
    09:00 +29°C° 0 mm 10 mps 752 mmHg 47%
    10:00 +31°C° 0 mm 10 mps 752 mmHg 44%
    11:00 +32°C° 0 mm 11 mps 752 mmHg 41%
    12:00 +32°C° 0 mm 11 mps 752 mmHg 40%
    13:00 +33°C° 0 mm 10 mps 752 mmHg 39%
    14:00 +33°C° 0 mm 10 mps 752 mmHg 38%
    15:00 +33°C° 0 mm 10 mps 752 mmHg 38%
    16:00 +33°C° 0 mm 9 mps 752 mmHg 38%
    17:00 +32°C° 0 mm 9 mps 751 mmHg 38%
    18:00 +31°C° 0 mm 8 mps 751 mmHg 41%
    19:00 +29°C° 0 mm 6 mps 751 mmHg 44%
    20:00 +28°C° 0 mm 5 mps 751 mmHg 46%
    21:00 +28°C° 0 mm 5 mps 751 mmHg 48%
    22:00 +27°C° 0 mm 5 mps 752 mmHg 49%
    23:00 +27°C° 0 mm 5 mps 752 mmHg 50%
    Show more